TimeMST,TemperatureF,Dew PointF,Humidity,Sea Level PressureIn,VisibilityMPH,Wind Direction,Wind SpeedMPH,Gust SpeedMPH,PrecipitationIn,Events,Conditions,WindDirDegrees,DateUTC
12:53 AM,26.1,19.9,78,29.97,10.0,NE,3.5,-,N/A,,Overcast,50,2013-02-26 07:53:00
1:37 AM,24.8,21.2,86,29.87,2.5,NNE,4.6,-,0.00,Snow,Light Snow,30,2013-02-26 08:37:00
1:46 AM,24.8,21.2,86,29.88,1.2,Calm,Calm,-,0.00,Snow,Light Snow,0,2013-02-26 08:46:00
1:53 AM,26.1,23.0,88,29.98,1.0,NE,3.5,-,0.00,Snow,Light Snow,50,2013-02-26 08:53:00
2:02 AM,24.8,23.0,93,29.88,0.8,Calm,Calm,-,0.00,Snow,Light Snow,0,2013-02-26 09:02:00
2:05 AM,26.6,23.0,86,29.88,1.0,Calm,Calm,-,0.00,Snow,Light Snow,0,2013-02-26 09:05:00
2:46 AM,24.8,23.0,93,29.88,0.8,West,5.8,-,0.02,Snow,Light Snow,260,2013-02-26 09:46:00
2:53 AM,25.0,24.1,96,29.99,0.5,West,5.8,-,0.02,Fog-Snow,Snow,270,2013-02-26 09:53:00
3:04 AM,24.8,24.8,100,29.89,0.5,WSW,5.8,-,0.01,Fog-Snow,Snow,250,2013-02-26 10:04:00
3:11 AM,26.6,24.8,93,29.89,1.0,West,6.9,-,0.01,Snow,Light Snow,270,2013-02-26 10:11:00
3:22 AM,26.6,26.6,100,29.89,1.5,WNW,10.4,-,0.01,Snow,Light Snow,300,2013-02-26 10:22:00
3:33 AM,28.4,26.6,93,29.89,1.5,WNW,9.2,-,0.02,Snow,Light Snow,300,2013-02-26 10:33:00
3:50 AM,26.6,24.8,93,29.88,3.0,West,11.5,-,0.02,Snow,Light Snow,280,2013-02-26 10:50:00
3:51 AM,27.0,25.0,92,29.98,3.0,West,11.5,-,0.02,Snow,Light Snow,280,2013-02-26 10:51:00
4:01 AM,26.6,24.8,93,29.88,9.0,WNW,9.2,-,0.00,,Overcast,290,2013-02-26 11:01:00
4:53 AM,25.0,21.9,88,30.00,10.0,WSW,5.8,-,0.00,,Overcast,250,2013-02-26 11:53:00
5:53 AM,25.0,19.9,81,30.04,10.0,West,5.8,-,N/A,,Overcast,270,2013-02-26 12:53:00
6:53 AM,26.1,19.0,75,30.05,10.0,Calm,Calm,-,N/A,,Overcast,0,2013-02-26 13:53:00
7:53 AM,23.0,17.1,78,30.08,10.0,West,5.8,-,N/A,,Overcast,260,2013-02-26 14:53:00
8:53 AM,24.1,17.1,75,30.11,10.0,Calm,Calm,-,N/A,,Overcast,0,2013-02-26 15:53:00
9:53 AM,30.0,15.1,54,30.11,10.0,Calm,Calm,-,N/A,,Clear,0,2013-02-26 16:53:00
10:53 AM,32.0,17.1,54,30.11,10.0,NW,12.7,-,N/A,,Clear,320,2013-02-26 17:53:00
11:53 AM,33.1,17.1,52,30.12,10.0,North,5.8,23.0,N/A,,Clear,10,2013-02-26 18:53:00
12:53 PM,34.0,17.1,50,30.11,10.0,NNW,19.6,-,N/A,,Clear,340,2013-02-26 19:53:00
1:53 PM,35.1,16.0,46,30.11,10.0,NNW,16.1,-,N/A,,Clear,340,2013-02-26 20:53:00
2:53 PM,36.0,12.9,39,30.12,10.0,North,13.8,-,N/A,,Clear,360,2013-02-26 21:53:00
3:53 PM,36.0,15.1,43,30.14,10.0,North,11.5,-,N/A,,Clear,350,2013-02-26 22:53:00
4:53 PM,35.1,16.0,46,30.17,10.0,NNW,5.8,-,N/A,,Clear,330,2013-02-26 23:53:00
5:53 PM,28.9,15.1,56,30.20,10.0,SW,4.6,-,N/A,,Clear,230,2013-02-27 00:53:00
6:53 PM,26.1,14.0,60,30.23,10.0,WSW,6.9,-,N/A,,Clear,240,2013-02-27 01:53:00
7:53 PM,21.0,12.9,71,30.28,10.0,SW,6.9,-,N/A,,Clear,220,2013-02-27 02:53:00
8:53 PM,16.0,10.0,77,30.32,10.0,East,3.5,-,N/A,,Clear,80,2013-02-27 03:53:00
9:53 PM,16.0,10.0,77,30.31,10.0,South,5.8,-,N/A,,Partly Cloudy,190,2013-02-27 04:53:00
10:53 PM,18.0,12.0,78,30.31,10.0,SSW,8.1,-,N/A,,Mostly Cloudy,200,2013-02-27 05:53:00
11:53 PM,17.1,10.0,74,30.32,10.0,SW,3.5,-,N/A,,Mostly Cloudy,220,2013-02-27 06:53:00